Details for FedEx at KIND




Go Back


Latest METAR
Local Time

KIND 221054Z 04007KT 10SM OVC190 15/10 A3024 RMK AO2 SLP235 T01500100
22/09/2018, 07:37:49

Description
Results
FedEx Logo
Number of Pilots based at KIND
0 Pilots Based here
Number of FedEx Flights Departed from KIND
0 Flights Departed
Number of FedEx Flights Arrived at KIND
0 Flights Arrived
Number of FedEx Schedules Departing from KIND
228 Schedules
Number of FedEx Schedules Arriving at KIND
216 Schedules
Number of FedEx Schedules Departing from KIND availible today
17 Schedules Today
Number of FedEx Schedules Arriving at KIND availible today
16 Schedules Today
Average Landing Rate at KIND
-277 fpm
FedEx Average Landing Rate at KIND
0 fpm
Total Fuel Purchased at KIND by FedEx
0.00 kgs / 0.00 lbs

Pilots Based at KIND


Pilot ID
Pilot Name
Pilot Rank
No. of Flights
No. of Flying Hours
There are no pilots assigned to this hub!   Will you be the first?
Content